Preview of NWS' New Version of Forecast
This preview is not operational and should not be used for support decisions.

Regional Weather Roundup (RWR)

Issued by National Weather Service (NWS)

                            
000
ASUS44 KJAN 141610
RWRMS 

MISSISSIPPI HOURLY WEATHER ROUNDUP
NATIONAL WEATHER SERVICE JACKSON MS
1100 AM CDT SAT SEP 14 2019

NOTE: "FAIR: INDICATES FEW OR NO CLOUDS BELOW 12,000 FEET WITH NO
SIGNIFICANT WEATHER AND/OR OBSTRUCTIONS TO VISIBILITY.

MSZ001>002-007>008-010>013-018>021-025>028-034>036-141700-
NORTHWEST MISSISSIPPI
  
CITY           SKY/WX    TMP DP  RH WIND       PRES   REMARKS
BATESVILLE     FAIR      86  70  58 VRB5      30.19S HX  90           
CLARKSDALE       N/A     86  70  58 CALM      30.19F HX  90           
CLEVELAND      FAIR      89  71  56 NE7       30.17F HX  95           
GREENWOOD      FAIR      90  69  50 E6        30.16F HX  94           
GREENVILLE     FAIR      90  71  53 E7        30.16F HX  96           
OLIVE BRANCH   MOSUNNY   82  64  54 NE8       30.21S                  
OXFORD         FAIR      86  70  58 VRB5      30.21F HX  90           
TUNICA           N/A     81  64  57 E6        30.21F                  
$$

MSZ003>006-009-014>017-022>024-029>033-037>039-141700-
NORTHEAST MISSISSIPPI
  
CITY           SKY/WX    TMP DP  RH WIND       PRES   REMARKS
ABERDEEN       FAIR      82  64  54 CALM      30.22S                  
COLUMBUS AFB   FAIR      87  70  55 SE7       30.19F HX  92           
CORINTH        FAIR      86  68  54 E7        30.21F                  
GOLDN TRIANGLE FAIR      88  70  55 SE9       30.19F HX  93           
STARKVILLE     FAIR      86  68  54 S3        30.20F                  
TUPELO         FAIR      86  69  56 VRB3      30.20F HX  90           
$$

MSZ040-058-141700-
CENTRAL MISSISSIPPI
  
CITY           SKY/WX    TMP DP  RH WIND       PRES   REMARKS
JACKSON INTL   FAIR      90  65  43 SE8       30.16S HX  92           
JACKSON HAWKNS FAIR      90  65  43 SE6       30.16S HX  92           
MADISON        FAIR      88  64  45 SE6       30.17F                  
MERIDIAN KEY   FAIR      89  68  49 VRB6      30.17F HX  93           
MERIDIAN NAS   FAIR      87  68  52 E12       30.19S HX  90           
RAYMOND        FAIR      90  70  51 VRB5      30.15F HX  95           
VICKSBURG VKS  SUNNY     90  68  48 VRB5      30.14S HX  93           
$$

MSZ059>079-141700-
SOUTH MISSISSIPPI
  
CITY           SKY/WX    TMP DP  RH WIND       PRES   REMARKS
BROOKHAVEN     FAIR      86  70  58 CALM      30.17S HX  90           
HATTIESBURG    FAIR      86  68  54 E10       30.16S                  
LAUREL         SUNNY     86  69  56 E13       30.16F                  
MCCOMB         FAIR      87  70  56 E10       30.14S HX  92           
NATCHEZ        FAIR      88  71  57 E7        30.14S HX  94           
PINE BELT      FAIR      86  71  60 E6        30.17S HAZE    HX  91   
$$

MSZ080>082-141700-
COASTAL MISSISSIPPI
  
CITY           SKY/WX    TMP DP  RH WIND       PRES   REMARKS
BAY ST LOUIS   MOSUNNY   88  70  55 E9        30.11R HX  92           
BILOXI         FAIR      88  72  59 E9        30.11S HX  94           
PASCAGOULA     FAIR      88  71  57 E10       30.12S HX  94           
GULFPORT       FAIR      88  69  53 E14       30.11R HX  92           
$$

LAZ007>009-015>016-023>026-141700-
NORTHEAST LOUISIANA
  
CITY           SKY/WX    TMP DP  RH WIND       PRES   REMARKS
BASTROP        FAIR      89  71  54 E7        30.16S HX  96           
TALLULAH/VBURG FAIR      90  70  51 E7        30.14S HX  95           
VIDALIA        FAIR      90  70  52 E3        30.12S HX  95           
$$